Regional Weather Roundup
Issued by NWS Sioux Falls, SD

Home | Current Version | Previous Version | Text Only | Print | Product List | Glossary Off
Versions: 1 2 3 4 5 6 7 8 9 10 11 12 13 14 15 16 17 18 19 20 21 22 23 24 25 26 27 28 29 30 31 32 33 34 35 36 37 38 39 40 41 42 43 44 45 46 47 48 49 50

000
ASUS43 KFSD 230102
RWRFSD

WEATHER ROUNDUP FOR SE SOUTH DAKOTA/SW MINNESOTA/NW IOWA
NATIONAL WEATHER SERVICE SIOUX FALLS SD
800 PM CDT WED OCT 22 2014

NOTE: "FAIR" INDICATES FEW OR NO CLOUDS BELOW 12,000 FEET WITH NO
SIGNIFICANT WEATHER AND OR OBSTRUCTIONS TO VISIBILITY.


SDZ038>040-050-052>070-230200-
SOUTHEAST SOUTH DAKOTA

CITY           SKY/WX    TMP DP  RH WIND       PRES   REMARKS
CHAMBERLAIN    CLEAR     45  44  95 CALM      30.00R
HURON          MOCLDY    53  51  93 SW5       29.98R
MADISON        CLOUDY    54  54 100 W7        29.99R
MITCHELL       MOCLDY    55  53  93 SW5       30.00R
SIOUX FALLS    CLOUDY    57  55  93 W7        30.00R
WINNER         FAIR      57  41  55 S6        30.01R
YANKTON        CLOUDY    55  54  94 W6        30.02R
$$

MNZ071-072-080-081-089-090-097-098-230200-
SOUTHWEST MINNESOTA

CITY           SKY/WX    TMP DP  RH WIND       PRES   REMARKS
FAIRMONT       CLOUDY    57  43  58 S21G26    30.02S
JACKSON        CLOUDY    61  45  55 S10       30.05R
LUVERNE        CLOUDY    59  55  88 S7        30.00R FOG
MARSHALL       CLOUDY    59  55  88 S6        29.95S
MONTEVIDEO     LGT RAIN  59  59 100 SW5       29.95F
PIPESTONE      CLOUDY    57  57 100 SW7       29.98R FOG
REDWOOD FALLS  CLOUDY    63  46  54 SE15      29.97R
TRACY          LGT RAIN  60  58  92 SW9       29.98R
WINDOM         CLOUDY    63  46  55 SE14G20   30.01S
WORTHINGTON    CLOUDY    57  55  94 S10       30.01S
$$

IAZ001>003-012>014-020>022-031-032-NEZ013-014-SDZ071-230200-
NORTHWEST IOWA

CITY           SKY/WX    TMP DP  RH WIND       PRES   REMARKS
CHEROKEE       HVY RAIN  59  59 100 S6        30.06R
DENISON        CLOUDY    64  52  63 S14G21    30.04R
ESTHERVILLE    CLOUDY    58  46  64 S15G25    30.04R
LE MARS        RAIN      59  59 100 S7        30.03R
ORANGE CITY    RAIN      61  57  88 S6        30.03R
SHELDON        LGT RAIN  59  59 100 S10       30.02R
SIOUX CITY     CLOUDY    60  58  92 S5        30.03R
SPENCER        CLOUDY    62  50  64 S16       30.05R
STORM LAKE     CLOUDY    63  50  63 SW8G15    30.07R
$$

ABBREVIATIONS USED IN REMARKS
   TC - TEMPERATURE IN CELSIUS
  WCI - WIND CHILL INDEX
   HX - HEAT INDEX
  VSB - VISIBILITY




USA.gov is the U.S. government's official web portal to all federal, state and local government web resources and services.